Regional Weather Roundup
Issued by NWS Albany, NY

Home | Current Version | Previous Version | Text Only | Print | Product List | Glossary On
Versions: 1 2 3 4 5 6 7 8 9 10 11 12 13 14 15 16 17 18 19 20 21 22 23 24 25 26 27 28 29 30 31 32 33 34 35 36 37 38 39 40 41 42 43 44 45 46 47 48 49 50
000
ASUS41 KALY 300810
RWRALY

NEW YORK STATE HOURLY WEATHER ROUNDUP
NATIONAL WEATHER SERVICE ALBANY NY
300 AM EST FRI JAN 30 2015

NOTE: "FAIR" INDICATES FEW OR NO CLOUDS BELOW 12,000 FEET WITH NO
SIGNIFICANT WEATHER AND/OR NO OBSTRUCTIONS TO VISIBILITY.

NYZ032-033-038>043-046>054-057>066-NYZ062>081-300900-
EAST


CITY           SKY/WX    TMP DP  RH WIND       PRES   REMARKS
ALBANY         LGT SNOW  28  23  81 S14       29.86F WCI  17
GLENS FALLS    LGT SNOW  27  24  89 S8        29.85F FOG     WCI  19
POUGHKEEPSIE   LGT SNOW  31  27  85 S3        29.89F FOG
NEWBURGH       LGT SNOW  27  27 100 CALM      29.89F FOG
MONTGOMERY     LGT SNOW  26  24  92 CALM      29.87F FOG
WHITE PLAINS   LGT SNOW  30  28  92 S5        29.88F VSB 1   WCI  25
ISLIP          MIX PCPN  34  31  88 CALM      29.90F
NEW YORK CITY  LGT SNOW  33  29  85 S5        29.90F FOG     WCI  29
CENTRAL PARK   CLOUDY    34  29  82 S5        29.92F HAZE    WCI  30
$$

NYZ005>009-017-018-044>046-055-056-300900-
CENTRAL


CITY           SKY/WX    TMP DP  RH WIND       PRES   REMARKS
FULTON         LGT SNOW  29  26  89 SW7       29.81S FOG     WCI  22
SYRACUSE       LGT SNOW  27  26  96 MISG      29.81S
ROME           LGT SNOW  25  24  96 SE7       29.84S VSB 1   WCI  17
ELMIRA         CLOUDY    26  24  92 CALM      29.84R FOG
BINGHAMTON     CLOUDY    24  22  91 SW7       29.78R WCI  16
MONTICELLO     CLOUDY    21  21 100 CALM      29.82F
$$

NYZ026>034-041>043-300900-
NORTH


CITY           SKY/WX    TMP DP  RH WIND       PRES   REMARKS
WATERTOWN      LGT SNOW  31  27  85 SW12      29.77R FOG     WCI  22
FORT DRUM      NOT AVBL
MASSENA        LGT SNOW  27  27 100 CALM      29.78S VSB 1
SARANAC LAKE   LGT SNOW  24  20  84 SW9       29.69S FOG     WCI  14
PLATTSBURGH    CLOUDY    27  21  78 S9        29.79F WCI  18
$$

NYZ001>004-010>016-019>021-300900-
WEST


CITY           SKY/WX    TMP DP  RH WIND       PRES   REMARKS
NIAGARA FALLS  FLURRIES  29  23  78 NW15      29.90R WCI  18
BUFFALO        LGT SNOW  29  23  78 W12       29.89R WCI  19
DUNKIRK        FLURRIES  30  23  75 NW10      29.94R WCI  21
JAMESTOWN      CLOUDY    27  21  80 NW13      29.87R WCI  16
WELLSVILLE     FLURRIES  26  22  84 W8        29.80R WCI  18
ROCHESTER      LGT SNOW  30  27  88 W9        29.85R FOG     WCI  22
PENN YAN       CLOUDY    30  24  78 W8G16     29.83R WCI  22
$$

             KEY
       WCI = WIND CHILL INDEX
       VSB = VISIBILITY
       HX  = HEAT INDEX
$$


USA.gov is the U.S. government's official web portal to all federal, state and local government web resources and services.